Weather in Happy Valley-Goose Bay

Canada     53°17′44″N   60°17′45″W
temp.,
°C
wind,
m/s
gust,
m/s
humid.,
%
clouds,
%
prec.,
mm/h
press.,
hPa
HPBL,
m
26 february, fri
fri2623:00−13wnw4895100 1.1 999573
02:00−16wnw4994100 1.9 1000628
05:00−19w41085100 0.2 1004673
08:00−20w41082100 0.2 1006703
11:00−17wnw5979100 0.0 1008794
14:00−15wnw5107398 0.0 1010930
17:00−16wnw39780 0.0 1015642
20:00−20sw33820 0.0 101861
27 february, sat
sat2723:00−20ssw23830 0.0 102067
02:00−19s23850 0.0 102041
05:00−18s36840 0.0 1020138
08:00−13s4107835 0.0 1018418
11:00−6ssw51075100 0.0 1015886
14:00−2ssw61275100 0.0 10131188
17:00−3ssw4128093 0.0 1012672
20:00−4ssw5147847 0.0 1013534
28 february, sun
sun2823:00−5ssw61376100 0.0 1013574
02:00−5ssw41179100 0.0 1012399
05:00−6s2288100 0.0 101457
08:00−7nw5895100 1.0 1018492
11:00−9n4774100 0.5 1020729
14:00−9nne467263 0.5 1021653
17:00−12ne22850 0.0 102422
20:00−18nne00890 0.0 102620
1 march, mon
mon123:00−20ne11932 0.0 102520
02:00−21n019424 0.0 102220
05:00−21ne009899 0.0 101820
08:00−17nne2398100 0.1 1014104
11:00−6e41185100 0.1 1007745
14:00−1sse81683100 1.1 10001184
17:00−2sse61677100 0.0 9961203
20:00−2s7167878 0.0 994918
2 march, tue
tue223:00−2s5148362 0.0 991721
02:00−3sse4118879 0.1 990457
05:00−4w3597100 0.6 990223
08:00−12w3693100 1.3 989422
11:00−12wnw4793100 0.7 988551
14:00−12nw5893100 2.4 985687
17:00−13wnw5995100 1.3 984618
20:00−13wnw51195100 2.7 985699